Regional Weather Roundup
Issued by NWS

Home | Current Version | Previous Version | Text Only | Print | Product List | Glossary On
Versions: 1 2 3 4 5 6 7 8 9 10 11 12 13 14 15 16 17 18 19 20 21 22 23 24 25 26 27 28 29 30 31 32 33 34 35 36 37 38 39 40 41 42 43 44 45 46 47 48 49 50
000
ASHW40 PHFO 280512
RWRHI

WEATHER ROUNDUP FOR HAWAII
NATIONAL WEATHER SERVICE HONOLULU HI
700 PM HST FRI MAY 27 2016

THIS IS AN AUTOMATED REPORT THAT HAS NOT BEEN QUALITY CONTROLLED.

NOTE..."FAIR" INDICATES FEW OR NO CLOUDS BELOW 12,000 FEET WITH NO
SIGNIFICANT WEATHER AND/OR OBSTRUCTIONS TO VISIBILITY.

* - THESE SITES REPORT LIMITED FIELDS

HIZ001>004-280600-
KAUAI-NIIHAU-

CITY           SKY/WX    TMP DP  RH WIND       PRES   REMARKS
LIHUE APT      CLOUDY    77  70  79 E10       30.07R
PORT ALLEN*      N/A     81 N/A N/A SE6         N/A
POIPU*           N/A     79 N/A N/A NE3         N/A
PRINCEVILLE*     N/A     75 N/A N/A S3          N/A
KOKOLE POINT*  NOT AVBL
MOLOAA DAIRY*    N/A     77  72  83 E5          N/A
WAIMEA HTS*    NOT AVBL
PUU OPAE*      NOT AVBL
PUU LUA*       NOT AVBL
MAKAHA RIDGE*  NOT AVBL
$$

HIZ005>011-280600-
OAHU-

CITY           SKY/WX    TMP DP  RH WIND       PRES   REMARKS
HONOLULU       MOCLDY    77  69  76 NW12      30.05R
KALAELOA       RAIN      75  69  81 NW7       30.07R
KANEOHE MCB    MOCLDY    78  69  73 E7        30.04R
WHEELER FIELD  FAIR      71  70  95 NW1       30.07R
BELLOWS*       NOT AVBL
KAHUKU*        NOT AVBL
WHEELER*       NOT AVBL
WAIANAE HARBOR NOT AVBL
DILLINGHAM*    NOT AVBL
KAHUKU TRN*      N/A     82  73  74 CALM        N/A
KAWAILOA*        N/A     72  66  83 E5G12       N/A
KII*             N/A     79  70  73 E12G17      N/A
MAKUA RANGE*     N/A     84  77  79 E3          N/A  HX  94
OAHU FOREST NW NOT AVBL
SCHOFIELD BRK*   N/A     70  68  94 MISG        N/A
SCHOFIELD S*   NOT AVBL
WAIANAE VLY*   NOT AVBL
KUAOKALA*      NOT AVBL
HONOULIUULI*   NOT AVBL
MOKUOLOE IS*   NOT AVBL
PALEHUA*       NOT AVBL
WAIAWA PHB*    NOT AVBL
$$

HIZ012>013-280600-
MOLOKAI-

CITY           SKY/WX    TMP DP  RH WIND       PRES   REMARKS
MOLOKAI AIRPT  MOCLDY    77  67  71 NE5       30.06R
KALAUPAPA      NOT AVBL
MAKAPULAPAI*   NOT AVBL
MOLOKAI 1*     NOT AVBL
PUU ALII*      NOT AVBL
$$

HIZ016-280600-
KAHOOLAWE-

CITY           SKY/WX    TMP DP  RH WIND       PRES   REMARKS
KAHOOLAWE*     NOT AVBL
HAKIOAWA*      NOT AVBL
HONOKANAIA*      N/A     80  68  67 NE10      29.98R
KANELOA*         N/A     75  66  73 E18G28    30.11
KEALIALALO*    NOT AVBL
LUA MAKIKA*    NOT AVBL
$$

HIZ014>015-280600-
LANAI-

CITY           SKY/WX    TMP DP  RH WIND       PRES   REMARKS
LANAI CITY     FAIR      72  67  84 NE13      30.11R
LANAI 1*       NOT AVBL
$$

HIZ017>028-280600-
MAUI-

CITY           SKY/WX    TMP DP  RH WIND       PRES   REMARKS
KAHULUI        PTCLDY    79  67  66 NE13      30.03R
KAPALUA-W MAUI NOT AVBL
HANA AIRPORT   NOT AVBL
HANA*            N/A     77 N/A N/A E6          N/A
HALEAKALA SUMM   N/A     48  19  32 SE2G16      N/A
MAALAEA BAY*   NOT AVBL
HALEAKALA*     NOT AVBL
KAUPO GAP*     NOT AVBL
KULA 1*        NOT AVBL
$$

HIZ023>026-280600-
BIG ISLAND OF HAWAII COAST AND LOWER SLOPES-

CITY           SKY/WX    TMP DP  RH WIND       PRES   REMARKS
KAILUA KONA    CLOUDY    80  70  71 S13       30.03R
HILO           MOCLDY    76  70  82 SW9       30.06R
HONOKAA*         N/A     70 N/A N/A VRB1        N/A
KAWAIHAE MWT*    N/A     81 N/A N/A W5          N/A
KAWAIHAE*      NOT AVBL
SOUTH POINT*     N/A     72 N/A N/A N14G22      N/A
UPOLU AIRPORT*   N/A    N/A N/A N/A E13G18      N/A
KAMUELA*       CLOUDY    66  61  82 NE15      30.15S
HAKALAU*         N/A     55  55  99 S2          N/A
KALOKO-HONOKO* NOT AVBL
PALI 2*          N/A     64  61  88 SW10        N/A
KEALAKOMO*       N/A     77  68  73 NE10G18     N/A
KAUPULEHU*     NOT AVBL
KAPAPALA*        N/A     69  65  87 NE3G12      N/A
LOWER KAHUKU*  NOT AVBL
PUHE CS*       NOT AVBL
PUHO CS*       NOT AVBL
PTA KEAMUKU*     N/A     63  59  88 CALM        N/A
WAIKOLOA*      NOT AVBL
$$

HIZ027>028-280600-
BIG ISLAND OF HAWAII INTERIOR AND SUMMMITS-

CITY           SKY/WX    TMP DP  RH WIND       PRES   REMARKS
BRADSHAW FIELD CLOUDY    59  57  94 W5        30.37R
MK VISITOR CEN   N/A     48  45  87 S2          N/A
MAUNA KEA*       N/A     39  -4  16 N17         N/A
MAUNA LOA*     NOT AVBL
MAUNA LOA 1*   NOT AVBL
PTA KIPUKA*      N/A     63  63 100 N6          N/A
PTA RANGE 17*    N/A     59  57  94 W3G10       N/A
PTA WEST*        N/A    N/A N/A N/A NW7         N/A
NENE CABIN*    NOT AVBL
AHUMOA*        NOT AVBL
PTA PORTABLE*  NOT AVBL
PUU MALI*        N/A     55  55 100 W3G12       N/A
$$

HIC003-280600-
NORTHWEST ISLANDS-

CITY           SKY/WX    TMP DP  RH WIND       PRES   REMARKS
MIDWAY ISLAND    N/A     73  70  88 NE10      30.12S
MIDWAY NOS*    NOT AVBL
FRENCH FRIGATE NOT AVBL
$$

PHZ110>124-180-280600-
BUOY REPORTS

STATION/POSITION TIME  TEMP    WIND        PRES    WAVE   SWELL
                       AIR SEA DIR/SP/G            HT/PER HT/DIR
                 (UTC) (F)     (DEG/KT/KT) (MB)    (FT/S) (FT/D)
BUOY 51001       0400   79 81   50/  8/ 10 1017.3
BUOY 51101       0450   80 81  220/  2/  2 1017.5R   5/ 9   5/ 10
BUOY 51100       NOT AVBL
BUOY 51002       0450   78 79   80/ 12/ 14 1016.1R   5/ 8   5/110
BUOY 51003       0450   79 80   60/  8/ 10 1016.9R   4/15   5/170
BUOY 51004       0450   78 79   80/ 16/ 17 1016.4R   6/ 8   3/ 80
BARBERS PT BUOY  NOT AVBL
WAIMEA BAY BUOY  0404      78                N/A     3/11   2/340
KAILUA BAY BUOY  0411      78                N/A     4/11   2
LANAI BUOY       0415      80                N/A     3/15   2/210
BARBERS PT 2     0503      79                N/A     4/15   3/200
PAUWELA MAUI     0409      78                N/A     5/ 8   2/350
HILO             0412      79                N/A     5/ 8
KANEOHE BAY BUOY 0406      78                N/A     3/ 8   2/360
HANALEI KAUAI    NOT AVBL
KAHULUI HARBOR   0400   79 80   60/ 12/ 17 1016.4R
HONOLULU HARBOR  0400   80 80   50/  3/  5 1017.6R
KILO NALU        NOT AVBL
HILO HARBOR      0400   75 78  310/  2/  4 1017.3R
MOKUOLOE         0400   78 81  100/ 11/ 14 1017.4R
NAWILIWILI       0400   78 81   70/  7/  7 1017.4R
WHOTS BUOY       NOT AVBL
BUOY 51028       NOT AVBL
$$

......................KEY........................................
  SKY/WX - SKY CONDITIONS/PRESENT WEATHER
  TMP    - TEMPERATURE IN FAHRENHEIT
  DWPT   - DEWPOINT IN FAHRENHEIT
  RH     - RELATIVE HUMIDITY IN PERCENT
  WIND   - DIRECTION AND SPEED /MPH FOR ISLANDS...KTS FOR BUOYS/
  PRES   - MEAN SEA LEVEL PRESSURE IN INCHES OF HG
  VSB    - VISIBILITY IN MILES
  HX     - HEAT INDEX
  WCI    - WIND CHILL INDEX
  VRB    - VARIABLE WIND DIRECTION
  N/A    - NOT AVAILABLE




USA.gov is the U.S. government's official web portal to all federal, state and local government web resources and services.